Location: Claflin County Park
(44.8478°N, 87.5507°W)
Time: 03:11:21
(UTC+00:00)

Cosmos 1898 Rocket - Pass Details

Date: 10 December 2025
Orbit: 749 x 779 km, 74.0° (Epoch: 12 January)

Event Time Altitude Azimuth Distance (km) Brightness Sun altitude
Exits shadow 11:10:39 42° 246° (WSW) 1,092 3.9 -21.5°
Drops below altitude 10° 11:15:14 10° 187° (S) 2,311 6.0 -20.7°
Sets 11:17:42 0° 180° (S) 3,237 6.9 -20.3°
